Location: Carabito
(9.8355°N, 67.9249°W)
Time: 00:56:18
(UTC+00:00)

Okean O Rocket - Pass Details

Date: 23 May 2024
Orbit: 617 x 640 km, 98.1° (Epoch: 15 June)

Event Time Altitude Azimuth Distance (km) Brightness Sun altitude
Exits shadow 00:24:30 19° 39° (NE) 1,500 3.4 -22.8°
Drops below altitude 10° 00:26:17 10° 20° (NNE) 2,024 4.3 -23.1°
Sets 00:28:46 0° 8° (N) 2,933 5.3 -23.7°
